Regional Weather Roundup
Issued by NWS

Home | Current Version | Previous Version | Text Only | Print | Product List | Glossary On
Versions: 1 2 3 4 5 6 7 8 9 10 11 12 13 14 15 16 17 18 19 20 21 22 23 24 25 26 27 28
000
ASUS44 KBMX 231510
RWRAL

ALABAMA REGIONAL WEATHER ROUNDUP
NATIONAL WEATHER SERVICE BIRMINGHAM AL
1000 AM CDT SAT JUL 23 2016

NOTE: "FAIR" INDICATES FEW OR NO CLOUDS BELOW 12,000 FEET
WITH NO SIGNIFICANT WEATHER AND/OR OBSTRUCTIONS TO VISIBILITY.

THE REMARK "TC" DENOTES TEMPERATURE IN DEGREES CELSIUS.

ALZ001>011-014-016>018-020-231600-
NORTH ALABAMA

CITY           SKY/WX    TMP DP  RH WIND       PRES   REMARKS
MUSCLE SHOALS  MOSUNNY   84  74  71 CALM      30.02F HX  91
HUNTSVILLE     MOSUNNY   88  69  53 VRB5      30.02F HX  92
DECATUR        SUNNY     85  72  65 CALM      30.02F HX  91
HALEYVILLE     FAIR      84  72  67 S6        30.05F
GADSDEN        SUNNY     86  77  74 CALM      30.04S HX  97
$$

ALZ012-013-022-023-030>036-040>044-231600-
WEST CENTRAL ALABAMA

CITY           SKY/WX    TMP DP  RH WIND       PRES   REMARKS
TUSCALOOSA     MOSUNNY   83  76  79 SW5       30.02F HX  91
$$

ALZ015-024>027-033>036-040>044-231600-
CENTRAL ALABAMA

CITY           SKY/WX    TMP DP  RH WIND       PRES   REMARKS
BIRMINGHAM     MOSUNNY   88  74  63 S6        30.05S HX  96
MONTGOMERY     MOSUNNY   85  75  72 SE5       30.03F HX  93
SHELBY CO ARPT SUNNY     85  75  72 SW5       30.04S HX  93
MAXWELL AFB    MOSUNNY   85  77  77 SW3       30.03S HX  95
GREENVILLE     FAIR      86  75  69 SE3       30.04S HX  95
$$

ALZ019-021-028-029-037-038-045>048-231600-
EAST CENTRAL ALABAMA

CITY           SKY/WX    TMP DP  RH WIND       PRES   REMARKS
ANNISTON       MOSUNNY   86  75  69 W5        30.04S HX  95
ALEXANDER CITY CLOUDY    88  82  82 SE5       30.05F HX 107
AUBURN         CLOUDY    85  73  67 CALM      30.07F HX  91
$$

ALZ051>064-231600-
SOUTHWEST ALABAMA

CITY           SKY/WX    TMP DP  RH WIND       PRES   REMARKS
MOBILE         MOSUNNY   85  75  72 CALM      30.03S HX  93
BROOKLEY FIELD MOSUNNY   83  75  77 E3        30.04R HX  90
EVERGREEN      CLOUDY    84  76  76 E6        30.04S HX  93
$$

ALZ049-050-065>069-231600-
SOUTHEAST ALABAMA

CITY           SKY/WX    TMP DP  RH WIND       PRES   REMARKS
DOTHAN         MOSUNNY   84  73  69 CALM      30.08S HX  90
OZARK          SUNNY     83  75  76 CALM      30.04S HX  90
TROY           CLOUDY    83  76  79 CALM      30.06S HX  91
EUFAULA        FAIR      85  75  72 SE5       30.04  HX  93
$$




USA.gov is the U.S. government's official web portal to all federal, state and local government web resources and services.